087  
ASUS42 KTBW 170317  
RWRFL  
FLORIDA REGIONAL WEATHER ROUNDUP  
NATIONAL WEATHER SERVICE TAMPA BAY RUSKIN FL  
1100 PM EDT TUE OCT 16 2018  
 
NOTE: "FAIR" INDICATES FEW OR NO CLOUDS BELOW 12,000 FEET WITH NO  
SIGNIFICANT WEATHER AND/OR S TO VISIBILITY
.  
 
FLZ001>010-012>015-112-114-115-170400-  
PANHANDLE FLORIDA  
 
CITY SKY/WX TMP DP RH WIND PRES REMARKS
 
PENSACOLA FAIR 77 75 93 CALM 30.11R  
PENSACOLA NAS PTCLDY 75 75 100 CALM 30.10R  
MILTON NAS FAIR 74 74 100 CALM 30.11  
MARY ESTHER CLEAR 79 77 92 CALM 30.10R  
PANAMA CITY PTCLDY 75 73 94 CALM 30.11R FOG  
 
STATION/POSITION SKY/WX TEMP WIND PRES WAVE SWELL
 
AIR SEA DIR/SP/G HT/PER HT/PER  
(F) (DEG/KT/KT) (MB) (FT/S) (FT/S)  
30.1N 87.6W 82 1019.3R  
29.2N 88.2W 110/ 10/ 12 1019.1R 3/ 7 2/ 7  
PANAMA CITY BEAC 81 83 190/ 6/ 7 1020.1R  
TOWER C 80 170/ 4/ 5 1020.1R  
 

 
FLZ011-016>038-118-127-128-134-139-239-170400-  
NORTH FLORIDA  
 
CITY SKY/WX TMP DP RH WIND PRES REMARKS
 
TALLAHASSEE FAIR 77 75 93 CALM 30.12R  
PERRY FOG 75 74 97 CALM 30.12R VSB 3/4  
LIVE OAK CLEAR 73 73 100 CALM 30.11R  
CROSS CITY FAIR 77 75 93 CALM 30.11R  
LAKE CITY FAIR 75 72 88 CALM 30.13R  
GAINESVILLE MOCLDY 79 75 87 CALM 30.14R  
JACKSONVILLE FAIR 78 75 90 SE7 30.11S  
JAX NAS FAIR 82 77 84 SE8 30.13R  
JAX CECIL CLEAR 79 75 89 VRB5 30.12R  
ST AUGUSTINE FAIR 80 75 84 SE9 30.13S  
PALM COAST FAIR 78 74 89 CALM 30.13R  
 
STATION/POSITION SKY/WX TEMP WIND PRES WAVE SWELL
 
AIR SEA DIR/SP/G HT/PER HT/PER  
(F) (DEG/KT/KT) (MB) (FT/S) (FT/S)  
SHELL POINT NOT AVBL  
KEATON BEACH 81 290/ 4/ 5 1019.9R  
CEDAR KEY 80 350/ 2/ 3 1019.8R  
FERNANDINA 82 83 150/ 6/ 11 1020.7R  
30.7N 81.3W 82 N/A 3/ 3  
MAYPORT 81 82 170/ 4/ 10 1020.5R  
31.4N 80.9W 82 82 160/ 16/ 17 1019.3F 2/11 2/11  
ST AUGUSTINE 82 84 150/ 14/ 16 1020.4R  
 

 
FLZ040-043>046-052-053-057-058-063-144-170400-  
INTERIOR CENTRAL FLORIDA  
 
CITY SKY/WX TMP DP RH WIND PRES REMARKS
 
OCALA FAIR 77 72 84 CALM 30.12R  
LEESBURG FAIR 80 75 84 E8 30.12S  
SANFORD FAIR 78 75 90 CALM 30.13R  
ORLANDO EXEC FAIR 77 75 93 SE7 30.12R  
ORLANDO INTL FAIR 77 73 87 SE5 30.12S  
KISSIMMEE FAIR 78 74 87 SE6 30.13R  
WINTER HAVEN FAIR 81 73 76 SE8 30.13R  
BARTOW N/A 77 73 88 SE6 30.13R  
SEBRING FAIR 80 74 82 SE6 30.13R  
OKEECHOBEE CLOUDY 75 73 94 CALM 30.12R  
 

 
FLZ041-047-054-059-064-141-147-170400-  
EAST CENTRAL FLORIDA  
 
CITY SKY/WX TMP DP RH WIND PRES REMARKS
 
DAYTONA BEACH FAIR 79 77 94 CALM 30.13R  
DELAND FAIR 77 73 88 SE6 30.12S  
MELBOURNE FAIR 82 75 79 SE6 30.12R  
VERO BEACH FAIR 82 75 79 SE10 30.12R  
FT PIERCE FAIR 82 74 76 E12 30.12R  
STUART FAIR 81 73 78 E10 30.13S  
 
STATION/POSITION SKY/WX TEMP WIND PRES WAVE SWELL
 
AIR SEA DIR/SP/G HT/PER HT/PER  
(F) (DEG/KT/KT) (MB) (FT/S) (FT/S)  
28.5N 80.2W 83 120/ 10/ 12 1020.4R  
28.9N 78.5W 83 120/ 8/ 10 1021.4R  
TRIDENT PIER 81 84 110/ 6/ 10 1021.5R  
28.4N 80.5W 83 N/A 2/ 4  
27.5N 80.2W 83 N/A 3/ 4  
 

 
FLZ050-056-061-142-242-148-248-149-249-151-251-155-255-  
160-260-170400-  
WEST CENTRAL FLORIDA  
 
CITY SKY/WX TMP DP RH WIND PRES REMARKS
 
CRYSTAL RIVER FAIR 77 73 88 CALM 30.12R  
BROOKSVILLE FAIR 75 73 93 CALM 30.13R  
CLEARWATER AIR FAIR 79 75 89 CALM 30.11R  
ST PETE CLEARW FAIR 81 77 88 N3 30.11R  
TAMPA INTL FAIR 84 72 67 SE6 30.11R  
TAMPA EXEC FAIR 79 72 78 SE3 30.12R  
PLANT CITY FAIR 81 72 74 E5 30.14R  
MACDILL AFB CLOUDY 82 73 74 S3 30.10R  
PETER O KNIGHT CLOUDY 81 73 78 SE6 30.11R  
ST PETERSBURG CLOUDY 84 74 71 E8 30.09R  
SARASOTA FAIR 81 73 76 E12 30.08R  
VENICE FAIR 82 73 74 E8G14 30.10R  
 
STATION/POSITION SKY/WX TEMP WIND PRES WAVE SWELL
 
AIR SEA DIR/SP/G HT/PER HT/PER  
(F) (DEG/KT/KT) (MB) (FT/S) (FT/S)  
CLEARWATER BEACH 82 85 20/ 5/ 7 1019.6R  
MIDDLE TAMPA BAY 82 140/ 9/ 11 1019.5R  
VENICE 82 84 100/ 7/ 9 N/A  
 

 
FLZ066-069-070-075>078-162-262-165-265-170400-  
SOUTHWEST FLORIDA AND KEYS  
 
CITY SKY/WX TMP DP RH WIND PRES REMARKS
 
PUNTA GORDA FAIR 80 73 79 E7 30.12R  
FT MYERS FAIR 79 74 84 E7 30.09R  
SOUTHWEST INTL FAIR 79 74 84 E7 30.10R  
NAPLES FAIR 80 74 81 E8 30.09R  
MARCO ISLAND FAIR 79 74 84 NE6 30.10R  
IMMOKALEE CLEAR 75 73 94 NE5 30.10R  
MARATHON FAIR 83 75 77 E9G17 30.06R  
KEY WEST INTL FAIR 85 75 72 E16G24 30.05R  
 
STATION/POSITION SKY/WX TEMP WIND PRES WAVE SWELL
 
AIR SEA DIR/SP/G HT/PER HT/PER  
(F) (DEG/KT/KT) (MB) (FT/S) (FT/S)  
NAPLES 82 83 1018.9R  
26.0N 85.6W 90/ 12/ 14 1017.9R 4/ 8 3/ 8  
DRY TORTUGAS 83 90/ 18/ 19 1017.2R  
SAND KEY 82 1017.4R  
SOMBRERO KEY 83 80/ 17/ 20 1017.0R  
LONG KEY 80 84 110/ 14/ 15 1018.1R  
MOLASSES REEF 82 83 100/ 14/ 15 1018.3S  
 

 
FLZ067-068-071>074-168-172>174-170400-  
SOUTHEAST FLORIDA  
 
CITY SKY/WX TMP DP RH WIND PRES REMARKS
 
W PALM BEACH FAIR 82 75 79 E12 30.12R  
BOCA RATON PTCLDY 82 75 78 SE14 30.10R  
FT LAUDER-EXEC FAIR 83 76 79 E14 30.09R  
FT LAUDERDALE FAIR 82 77 84 E15 30.09R  
POMPANO BEACH FAIR 84 74 71 E15 30.10R  
PEMBROKE PINES FAIR 84 76 76 E14 30.11R  
OPA LOCKA FAIR 83 76 79 E14 30.10R  
MIAMI FAIR 82 77 84 E18 30.09R  
WEST KENDALL MOCLDY 82 76 81 E9 30.09R  
HOMESTEAD NOT AVBL  
 
STATION/POSITION SKY/WX TEMP WIND PRES WAVE SWELL
 
AIR SEA DIR/SP/G HT/PER HT/PER  
(F) (DEG/KT/KT) (MB) (FT/S) (FT/S)  
PORT EVERGLADES 84 90/ 10/ 14 1019.0R  
VIRGINIA KEY 84 85 70/ 15/ 18 1018.5R  
LAKE WORTH 83 84 110/ 15/ 16 1020.6R  
FOWEY ROCKS 83 82 80/ 21/ 22 1019.3R  
SETTLEMENT POINT 82 90/ 14/ 16 1020.0R  
 

 
 
 
 
CLICK HERE TO GO TO PREVIOUS BULLETINS.

The Nexlab FL Page Main Text Page